Tracking 35331 objects as of 16-Sep-2026
HD Live streaming from Space Station
objects crossing your sky now

STARLINK-3750

Track STARLINK-3750 now!
10-day predictions
STARLINK-3750 is classified as:


NORAD ID: 52311
Int'l Code: 2022-041BC
Launch date: April 21, 2022
Source: United States (US)
Launch site: AIR FORCE EASTERN TEST RANGE (AFETR)
Your satellite tracking list
Your tracking list is empty




NASA's NSSDC Master Catalog

Two Line Element Set (TLE):
1 52311U 22041BC  26258.41971545  .00004581  00000-0  15054-3 0  9996
2 52311  53.1597 305.6772 0001206  78.7186 281.3952 15.33549996244666
Source of the keplerian elements: AFSPC